BMCB-10 Weather Reports


Display with metric or nautical units.
time (UTC)temp
F
wind
direction
speed
MPH
gust
MPH
rain 1hr
in
rain 24hr
in
rain mn
in
humidity
%
barometer
mb
20260503022021 52 0 0.0 0.0 0.00 0.20 0.01 10 1012.3
20260503020024 51 0 0.0 0.0 0.00 0.20 0.01 10 1012.4
20260503014020 52 0 0.0 0.0 0.00 0.20 0.01 10 1012.5
20260503013021 52 0 0.0 0.0 0.00 0.20 0.01 10 1012.7
20260503012031 52 0 0.0 0.0 0.01 0.20 0.01 10 1012.8
20260503010020 52 0 0.0 0.0 0.01 0.20 0.01 10 1012.9
20260503005019 52 0 0.0 0.0 0.01 0.20 0.01 10 1012.9
20260503003022 52 0 0.0 0.0 0.01 0.20 0.01 10 1013.1
20260503002020 51 0 0.0 0.0 0.01 0.20 0.01 10 1013.2
20260503001020 51 0 0.0 0.0 0.00 0.19 0.00 10 1013.3
20260502235022 51 0 0.0 0.0 0.00 0.19 0.00 10 1013.6
20260502234029 52 0 0.0 0.0 0.00 0.19 0.00 10 1013.6
20260502232031 52 0 0.0 0.0 0.00 0.19 0.00 10 1013.7
20260502231034 53 0 0.0 0.0 0.00 0.19 0.00 10 1013.8
20260502230036 53 0 0.0 0.0 0.00 0.19 0.00 10 1013.9
20260502225023 53 0 0.0 0.0 0.00 0.19 0.00 10 1014.0
20260502224030 52 0 0.0 0.0 0.00 0.19 0.00 10 1013.8
20260502223033 52 0 0.0 0.0 0.00 0.19 0.00 10 1013.8
20260502222039 52 0 0.0 0.0 0.00 0.19 0.00 10 1013.8
20260502221051 52 0 0.0 0.0 0.00 0.19 0.00 10 1013.8
20260502220039 52 0 0.0 0.0 0.00 0.19 0.00 10 1013.8
20260502215054 52 0 0.0 0.0 0.00 0.19 0.19 10 1013.9
20260502214021 52 0 0.0 0.0 0.00 0.19 0.19 10 1013.9
20260502213022 53 0 0.0 0.0 0.00 0.19 0.19 10 1014.0
20260502212043 53 0 0.0 0.0 0.00 0.19 0.19 10 1014.1
20260502211021 53 0 0.0 0.0 0.00 0.19 0.19 10 1014.1
20260502210023 54 0 0.0 0.0 0.00 0.19 0.19 10 1014.1
20260502205049 54 0 0.0 0.0 0.00 0.19 0.19 10 1014.1
20260502204022 54 0 0.0 0.0 0.00 0.19 0.19 10 1014.2
20260502203022 54 0 0.0 0.0 0.00 0.19 0.19 10 1014.2
20260502201026 55 0 0.0 0.0 0.00 0.19 0.19 10 1014.4
20260502200049 56 0 0.0 0.0 0.00 0.19 0.19 10 1014.5
20260502195021 56 0 0.0 0.0 0.00 0.19 0.19 10 1014.5
20260502194020 56 0 0.0 0.0 0.00 0.19 0.19 10 1014.6
20260502193021 57 0 0.0 0.0 0.02 0.19 0.19 10 1014.6
20260502192048 57 0 0.0 0.0 0.02 0.19 0.19 10 1014.6
20260502190037 58 0 0.0 0.0 0.05 0.19 0.19 10 1014.6
20260502185039 58 0 0.0 0.0 0.09 0.19 0.19 10 1014.7
20260502184042 58 0 0.0 0.0 0.09 0.19 0.19 10 1014.8
20260502183051 58 0 0.0 0.0 0.09 0.19 0.19 10 1015.0
20260502182049 59 0 0.0 0.0 0.07 0.17 0.17 10 1015.1
20260502181022 59 0 0.0 0.0 0.08 0.17 0.17 10 1015.2
20260502164022 69 0 0.0 0.0 0.00 0.00 0.00 79 1013.9
20260502162024 70 0 0.0 0.0 0.00 0.00 0.00 76 1014.3
20260502161023 69 0 0.0 0.0 0.00 0.00 0.00 80 1014.5
20260502151053 75 0 0.0 0.0 0.00 0.00 0.00 57 1014.9
20260502123022 75 0 0.0 0.0 0.00 0.00 0.00 58 1016.8
20260502121019 73 0 0.0 0.0 0.00 0.00 0.00 62 1017.3
20260502115022 74 0 0.0 0.0 0.00 0.00 0.00 57 1017.5
20260502114021 74 0 0.0 0.0 0.00 0.00 0.00 58 1017.5
20260502113022 73 0 0.0 0.0 0.00 0.00 0.00 57 1017.7
20260502112020 73 0 0.0 0.0 0.00 0.00 0.00 59 1017.8
20260502111021 73 0 0.0 0.0 0.00 0.00 0.00 58 1017.9
20260502105022 73 0 0.0 0.0 0.00 0.00 0.00 59 1018.0
20260502103035 72 0 0.0 0.0 0.00 0.00 0.00 58 1018.3
20260502102022 71 0 0.0 0.0 0.00 0.00 0.00 59 1018.5
20260502101023 71 0 0.0 0.0 0.00 0.00 0.00 60 1018.6
20260502091021 68 0 0.0 0.0 0.00 0.00 0.00 62 1019.1
20260502071031 55 0 0.0 0.0 0.00 0.00 0.00 88 1020.0
20260502070033 54 0 0.0 0.0 0.00 0.00 0.00 91 1020.1
20260502065022 53 0 0.0 0.0 0.00 0.00 0.00 93 1020.1
20260502064022 52 0 0.0 0.0 0.00 0.00 0.00 94 1020.1
20260502063021 51 0 0.0 0.0 0.00 0.00 0.00 94 1020.2
20260502061021 50 0 0.0 0.0 0.00 0.00 0.00 94 1020.1
20260502060021 50 0 0.0 0.0 0.00 0.00 0.00 95 1020.1
20260502054021 49 0 0.0 0.0 0.00 0.00 0.00 95 1020.1
20260502043022 43 0 0.0 0.0 0.00 0.00 0.00 98 1019.8
20260502042038 42 0 0.0 0.0 0.00 0.00 0.00 97 1019.9
20260502041035 43 0 0.0 0.0 0.00 0.00 0.00 97 1020.1
20260502040021 43 0 0.0 0.0 0.00 0.00 0.00 96 1020.1
20260502035021 43 0 0.0 0.0 0.00 0.00 0.00 96 1020.1
20260502034029 43 0 0.0 0.0 0.00 0.00 0.00 95 1020.2
20260502032022 42 0 0.0 0.0 0.00 0.00 0.00 97 1020.2
20260502031046 42 0 0.0 0.0 0.00 0.00 0.00 98 1020.2
20260502030022 41 0 0.0 0.0 0.00 0.00 0.00 98 1020.2
20260502024042 40 0 0.0 0.0 0.00 0.00 0.00 98 1020.2
20260502023046 40 0 0.0 0.0 0.00 0.00 0.00 98 1020.3